COSMOS 1275 DEB, 42103

Orbit data source: Space-Track

COSMOS 1275 DEB, 42103 is space debris in LEO originally from a launch on Thu, 04 Jun 1981 UTC launched from the Plesetsk Missile And Space Complex (PKMTR). Debris objects in space refer to the collection of defunct objects orbiting the Earth. Examples of debris include non-operational satellites, rocket bodies, and fragments generated from explosions, collisions, or faulty payload assembly.

Loading next visibility...
Identifier
42103, 1981-053PP
Orbit
LEO
Last TLE update
1 day ago
Origin
Manufacturer
Unknown
Mission
Spacecraft
Bus & Motor
Unknown
Mass
Unknown
Launch date (UTC)
1981-06-04 (44 years ago)
Launch vehicle
Unknown
Launch site
Plesetsk Missile And Space Complex (PKMTR)
Object type
Payload
Rocket body
Debris
Shape & HBR
Unknown
Radar Cross Section
Small (<0.1 m²)

Expand to show TLE details & history

TLE from 1 day ago
0 COSMOS 1275 DEB
1 42103U 81053PP  25182.79301719  .00001596  00000-0  82236-3 0  9997
2 42103  83.1753 211.4625 0030094  37.1363 323.1889 14.14376921595347
Epoch: 2025-07-01T19:01Z
TLE epoch observation values (Epoch: 2025-07-01T19:01:56.685Z)
Latitude
-0.00005°
Longitude
5.89293°
Altitude
830.011 km
Speed
7.447 km/s
True Right ascension
14h 05m 50s
True Declination
0° 00' 00"
Sunlit
Object was in daylight at epoch
Visualization orbit readout
Latitude
-18.90176°
Longitude
2.47707°
Altitude
838.198 km
Speed
7.44 km/s
Apparent Right ascension
10h 49m 03s
Apparent Declination
-54° 31' 33"
Sunlit
Object is in daylight
Visualization observer readout
Local Sidereal Time
16:39:27
Azimuth
222.166° SW
Elevation
-30.258°
Doppler factor
1
Orbital elements
Apogee altitude
863.245 km
Perigee altitude
819.791 km
Semi-major axis
7,219.655 km
Eccentricity
0.00301
Inclination
83.1753°
RAAN
211.4625°
Arg. of periapsis
37.1363°
True anomaly
Unknown
Mean anomaly
323.1889°
Eccentric anomaly
Unknown
Mean motion
3.53809 °/min
Orbital period
101.75 mins
BSTAR
0.00082236
Loading maneuver chart data...
Loading SW <> Apogee altitude chart data...
Loading historical data...
Loading historical data...
Loading historical data...
Loading historical data...
Loading historical data...
Loading historical data...
Loading historical data...

COSMOS 1275 DEB Visibility forecast

Observer location: undefined°, undefined°

Span
Click to sort rows by Start time (UTC) header in descending order
Start Az.
Max El. time (UTC)
Max El. Az.
Max El.
End time (UTC)
End Az.
6 mins2025-07-03 12:22:01.849Z34.123° NE2025-07-03 12:25:01.849Z68.138° E15.71°2025-07-03 12:28:01.849Z102.969° ESE
9 mins2025-07-03 14:04:01.849Z343.538° N2025-07-03 14:08:01.849Z274.713° WNW41.69°2025-07-03 14:13:01.849Z188.546° SSW
7 mins2025-07-04 01:30:01.849Z129.435° SE2025-07-04 01:33:01.849Z86.576° E23.21°2025-07-04 01:37:01.849Z35.1° NE
8 mins2025-07-04 03:12:01.849Z226.401° WSW2025-07-04 03:15:01.849Z274.663° WNW30.743°2025-07-04 03:20:01.849Z348.289° N
|